Theta_e
287 288 288 288 287 289 287 288 284 287 287 292 294 293 292 293 292 289 288 288 287 287 287 287 287 288 289 289 289 290 290 291 294 297 299 300 301 303 304 306 307 308 308 309
282 286 287 285 288 289 289 289 289 289 289 295 293 294 290 288 287 285 285 285 285 285 285 285 285 286 287 287 286 288 288 289 292 292 293 296 296 296 296 298 300 301 300 301
279 283 283 276 283 288 289 291 291 286 291 294 289 286 283 282 282 282 282 281 282 282 283 283 283 284 284 284 284 286 286 287 289 287 287 289 291 291 293 294 295 295 295 296
280 278 275 282 287 291 290 285 287 287 283 284 285 282 281 280 279 279 279 279 280 281 280 281 281 283 281 282 282 285 284 285 286 285 285 287 288 288 289 293 292 292 293 293
278 274 278 280 283 285 285 282 279 281 280 280 282 282 277 278 278 278 278 279 280 280 279 278 279 279 277 278 280 282 281 282 282 283 284 285 286 288 290 291 290 290 289 288
275 273 269 280 282 285 287 278 277 278 276 275 280 280 277 276 276 276 276 277 277 277 277 276 276 276 275 276 277 277 278 278 279 281 282 284 286 288 289 288 287 286 286 286
276 270 276 280 280 282 275 277 275 275 273 273 274 273 273 275 273 275 275 275 275 274 273 274 274 274 273 273 273 274 275 276 277 278 281 284 286 287 288 287 286 285 285 285
278 275 272 273 277 279 274 273 273 272 271 271 272 272 272 272 272 272 272 273 273 271 271 271 272 271 270 270 272 271 272 272 273 276 279 283 286 286 287 286 285 285 285 284
278 275 272 271 271 272 274 272 270 270 270 270 269 269 269 269 270 270 270 270 270 269 268 269 269 269 267 268 269 269 268 268 270 274 277 283 285 285 286 286 285 285 285 284
273 271 269 269 270 270 270 269 269 268 268 268 267 267 267 268 269 268 268 267 267 266 265 265 266 267 266 267 267 266 265 267 269 272 276 282 285 285 285 286 285 285 285 284
271 270 269 268 268 268 268 267 266 266 266 266 266 266 266 266 266 267 266 266 265 264 263 263 265 264 265 266 265 265 265 267 269 274 278 281 283 283 283 284 285 286 286 286
271 269 268 267 265 266 265 264 264 264 264 265 265 264 265 264 265 265 264 264 263 263 262 263 262 263 264 265 264 264 265 268 269 272 276 280 281 281 285 286 287 287 287 286
263 262 264 263 262 263 262 262 263 263 264 263 264 263 263 263 264 264 263 262 262 262 261 261 262 262 264 264 265 264 266 267 269 272 274 278 279 278 276 279 281 281 283 286
262 263 261 259 259 260 261 261 261 261 261 262 261 261 262 261 261 260 261 260 261 260 260 260 260 261 264 264 265 265 266 267 268 270 271 273 274 275 274 271 271 272 276 278
258 259 260 260 259 257 257 256 256 258 258 258 258 257 258 257 256 257 256 256 257 256 258 259 260 261 264 264 264 265 266 267 267 268 269 270 271 271 270 269 269 270 271 272
257 256 256 255 255 253 252 252 252 253 254 255 255 257 258 255 253 252 253 254 256 257 258 259 260 262 264 263 264 265 266 267 267 267 267 267 267 267 267 267 266 266 269 269
253 251 250 249 250 250 250 249 251 252 252 250 252 254 253 251 251 252 254 253 254 255 258 259 260 264 264 263 264 264 264 265 265 265 265 265 265 265 265 265 265 265 265 270
249 249 249 250 250 249 249 248 248 249 250 252 251 249 250 250 250 253 254 254 255 256 260 260 261 263 263 262 263 263 263 263 264 263 264 264 264 264 263 263 263 263 263 264
247 250 248 249 248 248 248 249 249 250 250 250 249 250 249 250 251 252 252 252 253 255 258 260 264 262 261 262 263 262 262 262 262 262 262 262 262 262 262 262 262 262 262 262
247 246 246 247 247 249 251 250 248 249 250 249 247 249 250 251 251 252 252 252 253 255 258 259 260 261 261 261 262 261 260 260 260 260 260 260 260 260 260 260 260 260 260 260
248 248 249 249 250 249 250 251 250 250 248 246 248 247 247 248 247 248 249 249 251 253 256 258 259 260 260 260 260 259 259 259 259 258 258 258 258 259 259 259 259 259 259 259
247 248 249 249 250 250 250 249 247 246 245 245 244 244 244 247 246 248 248 250 251 254 256 255 257 260 259 259 258 258 257 257 257 257 257 257 257 257 257 257 257 257 257 257
250 250 249 248 248 248 245 245 245 245 246 244 245 246 247 248 248 248 249 250 249 253 252 254 257 260 260 257 256 256 256 255 255 255 255 256 255 255 255 255 255 255 255 255
246 246 246 244 242 244 247 246 244 244 245 246 246 247 247 249 251 248 249 251 252 253 252 253 256 260 256 252 253 253 253 253 254 254 254 254 254 254 254 253 253 254 254 254
246 245 243 244 245 247 244 244 244 245 244 245 247 248 246 248 250 249 249 250 253 253 251 254 259 257 248 246 247 249 249 249 250 250 251 251 251 251 251 252 252 252 252 252
244 246 246 246 247 246 246 245 247 245 245 247 246 246 246 246 248 250 250 251 250 251 249 249 247 247 246 247 246 247 249 249 251 251 251 250 251 251 251 251 251 251 251 251
242 244 243 245 245 247 246 247 246 250 246 245 248 249 247 247 249 252 252 252 251 250 249 248 249 250 249 248 248 249 249 249 251 250 247 247 248 247 249 249 249 250 250 250
Wind_Speed
5 4 6 5 13 19 17 16 11 10 13 12 2 9 8 9 9 11 11 12 12 11 11 12 14 15 15 15 16 15 16 16 16 17 17 13 9 8 7 7 6 5 5 5
1 5 4 4 9 10 16 14 12 8 12 5 11 8 8 8 8 10 11 10 9 10 12 13 14 15 16 16 18 16 17 17 16 17 17 15 12 8 7 8 8 6 5 5
4 5 6 7 10 15 10 10 16 12 14 1 9 10 9 9 11 12 11 12 13 13 13 12 15 15 15 17 18 16 17 17 15 18 18 17 15 11 9 9 6 6 6 6
4 4 9 4 5 12 15 3 2 5 9 8 8 12 12 12 11 12 13 15 15 13 14 14 15 13 15 16 16 16 18 18 15 16 17 18 17 13 8 7 7 6 6 5
6 5 4 4 2 6 9 4 4 4 5 5 2 7 6 11 11 11 12 11 11 12 14 13 14 15 16 15 15 16 16 17 18 17 17 16 17 16 13 9 6 6 5 5
2 5 8 6 2 5 2 3 3 6 6 6 5 4 2 12 11 11 11 10 12 13 13 14 15 16 16 14 16 15 16 18 17 17 17 16 15 15 11 7 6 4 4 5
4 2 6 2 6 7 7 4 6 7 6 6 4 3 8 10 11 11 11 13 14 13 13 14 16 16 17 16 15 16 17 17 18 17 17 16 15 12 12 9 5 4 5 3
4 3 8 8 4 4 6 6 7 8 8 6 6 10 12 13 14 14 15 15 15 14 14 15 15 15 17 17 18 18 18 18 17 18 15 13 14 12 11 8 6 5 4 3
2 3 5 11 12 9 7 8 5 6 6 6 7 8 11 11 11 13 15 15 14 14 15 14 14 15 17 18 18 19 18 18 18 18 16 15 12 11 9 7 6 5 5 4
6 4 7 9 10 11 11 10 7 6 5 5 6 8 9 10 11 12 13 13 14 15 14 14 14 15 15 17 17 17 18 18 16 16 16 14 9 7 7 6 6 6 5 5
6 9 10 6 8 7 8 8 7 6 6 6 7 8 9 10 11 12 12 12 12 12 13 15 16 16 15 16 16 16 16 16 16 13 15 13 9 5 4 4 5 5 6 5
4 5 4 7 8 5 7 6 5 5 6 7 7 8 9 8 9 11 11 11 12 13 13 15 15 16 17 16 16 16 15 13 12 12 12 10 5 3 16 14 16 14 6 2
5 4 12 14 9 6 6 5 6 5 6 6 7 7 7 8 8 8 8 10 11 12 12 13 14 15 16 18 17 16 14 15 12 11 10 9 3 4 5 8 16 24 28 13
6 6 8 4 4 5 6 4 4 3 5 5 5 5 5 4 5 5 7 7 8 8 9 11 13 14 17 17 17 16 15 17 11 10 10 9 8 7 6 7 8 9 14 23
6 7 8 10 7 6 3 2 3 4 3 4 4 4 5 6 4 5 6 6 6 6 7 11 12 15 16 17 17 15 13 12 12 10 10 11 9 9 9 9 8 8 8 12
7 8 8 8 6 2 2 1 3 1 3 4 5 6 6 5 4 5 5 4 6 8 8 11 12 15 16 16 16 12 12 19 15 10 10 11 11 11 10 10 10 10 10 11
8 3 2 3 3 1 1 1 1 1 3 3 4 6 6 5 4 5 6 5 3 4 5 9 13 14 14 13 13 10 9 10 15 10 10 10 10 10 9 9 9 9 9 12
4 4 4 4 5 2 1 2 1 2 1 4 4 4 4 4 4 6 7 5 5 5 7 11 11 12 12 12 12 9 9 9 9 10 9 10 10 9 9 9 9 9 8 10
3 6 4 4 5 4 3 2 3 4 4 3 3 4 4 3 4 5 6 5 6 7 10 12 15 11 11 14 11 8 9 10 10 9 9 10 9 9 8 9 8 8 8 8
2 0 1 2 1 3 3 3 2 2 3 1 2 4 5 6 6 6 5 4 2 3 8 10 10 9 10 12 13 7 8 9 9 8 9 8 8 8 8 10 9 8 8 7
5 4 4 4 3 3 5 3 3 1 4 2 2 3 4 6 5 5 4 3 5 5 7 8 7 7 7 9 8 8 7 7 7 7 7 7 7 8 7 7 7 7 7 7
3 4 4 4 2 3 4 4 4 2 1 2 3 2 3 5 4 5 4 3 4 6 4 3 5 9 8 10 6 7 7 7 6 6 7 7 7 7 7 7 7 6 6 6
5 4 4 4 4 5 3 4 4 3 3 3 4 4 3 3 3 1 3 5 3 6 3 4 8 10 12 6 5 6 6 6 6 6 6 6 6 6 6 7 7 6 6 6
3 3 3 2 1 1 3 4 3 4 5 5 5 5 3 3 4 2 2 5 6 5 4 5 6 9 7 3 4 5 4 5 5 5 5 7 5 6 6 6 7 6 6 7
4 3 2 2 3 4 4 4 2 4 3 4 5 5 4 4 4 4 3 4 7 5 4 6 8 8 3 3 3 3 3 3 3 3 4 4 5 6 6 6 6 6 6 6
4 4 4 6 5 4 4 3 3 3 1 3 4 3 3 3 3 3 4 5 4 4 3 3 3 3 3 3 3 4 4 4 5 5 5 4 6 6 6 7 7 7 7 7
3 3 2 4 4 5 4 4 3 5 4 4 4 4 4 3 4 4 4 3 3 3 3 3 3 3 3 3 4 4 4 4 6 5 4 5 5 4 6 7 7 7 8 8
Wind_Direction
241 143 148 175 187 193 205 214 198 223 206 246 101 63 76 57 47 52 44 42 23 11 2 2 355 349 346 342 342 344 336 334 333 329 325 315 317 316 319 323 328 326 324 320
123 144 152 204 217 207 215 230 258 249 266 251 112 144 89 69 67 38 30 29 8 2 1 359 352 344 340 337 337 338 337 335 329 340 333 325 319 315 318 318 319 312 305 293
206 141 100 300 200 199 204 204 222 230 248 87 108 97 67 50 34 20 10 5 8 2 353 344 345 338 343 333 329 329 333 333 334 337 331 326 319 310 305 304 302 305 307 305
132 83 226 250 206 186 204 94 295 8 65 64 98 101 83 48 32 18 4 357 355 349 341 344 337 343 337 328 323 325 327 328 333 330 325 322 320 314 298 291 282 278 275 274
160 186 305 335 196 146 167 201 27 98 49 33 69 146 90 34 27 13 1 347 341 343 335 334 335 338 331 325 321 326 326 324 327 323 318 315 313 310 303 288 271 265 258 263
124 165 207 220 130 13 122 253 37 79 57 360 323 178 102 2 8 2 353 344 341 338 335 331 338 332 326 326 324 321 323 318 314 313 309 305 303 300 293 266 260 264 258 256
160 175 283 316 323 309 119 213 88 80 64 33 69 20 323 347 349 351 339 346 342 343 335 339 330 331 327 324 317 322 316 310 310 306 303 297 295 294 286 270 255 244 247 247
143 149 255 6 322 183 113 70 90 70 45 29 359 339 344 344 342 338 343 345 347 341 339 332 334 331 326 322 324 317 315 311 307 304 300 294 293 294 284 265 246 236 226 239
129 167 81 41 89 65 78 102 75 65 33 7 339 343 335 333 330 345 344 344 346 336 329 334 334 330 320 319 319 318 314 309 307 303 297 292 292 290 286 259 246 236 218 217
125 130 121 104 78 74 71 83 76 53 31 3 344 338 340 335 344 343 347 345 341 336 336 331 331 326 316 316 318 315 312 308 305 302 298 291 289 280 275 263 248 240 221 211
87 114 109 91 83 84 84 70 58 43 27 17 357 359 349 342 345 345 344 342 341 338 334 329 330 325 324 323 323 317 312 308 307 303 305 300 285 275 280 274 266 259 241 218
182 120 89 115 109 74 85 64 49 34 28 24 17 360 350 345 346 344 342 342 342 340 337 335 332 327 330 330 326 320 315 318 312 310 308 297 290 313 36 40 35 19 320 219
137 77 88 108 98 74 84 46 32 46 35 16 17 1 353 343 341 337 340 347 342 338 334 333 333 331 336 334 330 327 324 324 320 319 323 325 9 11 8 5 27 31 26 37
66 116 71 22 105 72 68 43 31 29 27 16 350 335 325 316 325 347 352 331 323 319 331 335 335 337 341 338 335 334 337 338 336 337 343 348 4 28 37 32 19 11 11 30
54 50 85 107 87 65 43 26 57 54 14 360 338 328 338 338 335 330 320 314 320 314 335 343 342 341 346 341 343 342 346 351 350 354 0 6 15 29 33 35 30 21 17 16
91 75 84 100 113 96 142 63 120 30 7 356 352 338 320 301 303 306 307 323 12 343 343 344 346 339 346 343 345 347 351 356 4 5 8 16 23 29 26 29 29 27 24 29
108 92 99 85 135 179 154 205 104 267 301 330 297 308 319 330 332 334 327 327 345 316 341 350 345 345 341 339 350 351 349 353 2 10 15 18 22 25 24 27 26 28 25 25
123 107 134 145 162 159 357 334 330 329 266 281 302 315 345 5 320 318 321 318 356 346 358 346 345 348 335 341 1 354 352 353 2 9 7 15 22 21 21 24 25 22 17 21
147 155 166 171 193 184 206 228 237 259 288 308 355 340 304 317 317 303 315 356 5 355 348 339 338 344 341 343 9 2 356 359 5 7 9 8 16 17 21 20 18 18 17 17
130 99 152 229 253 190 215 248 262 315 297 336 9 9 357 335 323 328 327 329 85 293 323 328 336 338 348 346 357 11 3 360 4 6 8 8 8 9 11 17 13 12 13 13
184 186 193 195 219 239 220 215 180 263 289 32 52 315 292 299 318 323 347 360 302 323 321 329 337 341 350 350 357 1 4 357 4 1 360 359 358 4 6 2 3 5 3 4
192 186 205 200 203 261 247 229 194 200 325 338 312 291 322 310 318 312 253 170 289 322 313 320 326 351 355 354 357 355 355 355 357 358 356 356 356 354 352 354 354 355 353 352
183 192 193 202 205 224 288 265 221 189 238 247 259 270 251 254 253 301 335 289 300 308 315 313 320 358 1 353 352 349 347 350 351 350 347 346 345 343 342 342 341 341 343 343
197 207 216 205 177 40 289 279 235 246 231 252 249 239 224 306 315 228 274 302 311 312 309 309 332 359 359 329 339 337 332 334 336 333 335 338 334 333 333 332 331 333 329 328
209 212 200 182 219 242 232 244 254 277 256 267 278 276 245 220 186 265 292 292 304 323 304 317 337 344 330 319 311 305 301 297 301 312 315 314 322 322 317 317 316 316 314 313
188 217 218 216 216 214 215 172 222 242 227 281 283 256 270 266 261 273 278 279 277 292 292 297 303 310 315 310 306 309 305 303 316 317 314 308 313 313 313 313 310 309 305 301
241 214 271 286 243 223 214 212 205 246 217 200 244 256 232 249 267 270 268 278 283 281 281 293 296 299 300 299 302 300 294 293 298 301 287 289 292 283 297 296 295 294 295 294